Regional Weather Roundup
Issued by NWS Wakefield, VA

Home | Current Version | Previous Version | Text Only | Print | Product List | Glossary On
Versions: 1 2 3 4 5 6 7 8 9 10 11 12 13 14 15 16 17 18 19 20 21 22 23 24 25 26 27 28 29 30 31 32 33 34 35 36 37 38 39 40 41 42 43 44 45 46 47 48 49 50
542
ASUS41 KAKQ 200015
RWRAKQ

REGIONAL WEATHER ROUNDUP
NATIONAL WEATHER SERVICE WAKEFIELD VA
800 PM EDT TUE SEP 19 2017

Note: "fair" indicates few or no clouds below 12,000 feet with no
significant weather and/or obstructions to visibility. * = Denotes
station may not report precipitation (e.g., rain,snow,etc.),
thunder or fog.

VAZ042-051-052>054-056-200100-
NORTHERN VIRGINIA

CITY           SKY/WX    TMP DP  RH WIND       PRES   REMARKS
WASH NATIONAL  PTCLDY    78  66  66 N10       29.90S
DULLES         PTCLDY    77  67  71 N7        29.92R
FORT BELVOIR   CLEAR     74  66  75 NW3       29.90S
QUANTICO       CLEAR     76  67  73 N6        29.91R
FREDERICKSBRG* CLEAR     75  67  75 NW3       29.90R
STAFFORD*      CLEAR     69  69 100 CALM      29.95S
WARRENTON      CLEAR     67  62  81 CALM      29.92S
CULPEPER*      CLEAR     69  66  90 NW3       29.93S
MANASSAS*      CLEAR     73  66  78 NW5       29.92S
LEESBURG*      CLEAR     73  70  88 NW3       29.93S
WINCHESTER     CLEAR     66  63  88 CALM      29.95S
FRONT ROYAL*   CLEAR     72  64  78 CALM      29.93S
LURAY*         CLEAR     72  63  73 CALM      29.95S
$$

VAZ048-049-060>072-079>083-200100-
CENTRAL AND SOUTH CENTRAL VIRGINIA

CITY           SKY/WX    TMP DP  RH WIND       PRES   REMARKS
RICHMOND       PTCLDY    74  65  73 N6        29.89S
CHESTERFIELD*  NOT AVBL
PETERSBURG*    CLEAR     69  65  89 CALM      29.90F
HANOVER        CLEAR     73  65  75 CALM      29.91S
TAPPAHANNOCK*  CLEAR     77  61  56 W3        29.89S
QUINTON*       FAIR      72  70  94 W10       29.88S
CHARLOTTSVILLE CLEAR     75  66  73 N3        29.94R
GORDONSVILLE*  CLEAR     70  67  89 CALM      29.92S
ORANGE*        CLEAR     70  63  78 CALM      29.92F
LOUISA*        CLEAR     66  63  88 CALM      29.92F
BUMPASS*       NOT AVBL
FARMVILLE*     CLEAR     73  67  80 CALM      29.92R
CREWE*         FAIR      70  70 100 CALM      29.92R
FORT PICKETT*  FAIR      69  69 100 CALM      29.92S
CHASE CITY*    FAIR      70  70 100 CALM      29.93R
CLARKSVILLE*   FAIR      70  68  94 CALM      29.92S
SOUTH HILL*    CLEAR     69  68  97 CALM      29.98R
LAWRENCEVILLE* FAIR      69  67  94 CALM      29.92R
EMPORIA*       CLEAR     68  64  88 CALM      29.92R
$$

VAZ088>098-200100-
SOUTHEAST VIRGINIA

CITY           SKY/WX    TMP DP  RH WIND       PRES   REMARKS
NORFOLK        CLOUDY    74  68  81 N17G28    29.86R
VIRGINIA BEACH CLOUDY    73  64  73 N15G31    29.85R
NORFOLK NAVAL  MOCLDY    74  68  81 N12       29.89R
WEST POINT*    NOT AVBL
SALUDA*        CLOUDY    71  70  95 N8        29.88S
NEWPORT NEWS   CLOUDY    74  67  78 N7        29.88R
LANGLEY AFB    MOCLDY    73  68  84 N12       29.87R
FORT EUSTIS    DRIZZLE   77  68  73 NE6       29.86R
WILLIAMSBURG*  PTCLDY    77  68  73 CALM      29.88S
HR EXEC AP*    CLOUDY    70  69  97 CALM      29.88R
FRANKLIN*      CLEAR     72  66  80 CALM      29.89R
US460-WAKEFLD  CLEAR     72  68  87 CALM      29.88S
$$

VAZ020-022-025-037-045-200100-
WEST CENTRAL AND SOUTHWEST VIRGINIA

CITY           SKY/WX    TMP DP  RH WIND       PRES   REMARKS
STAUNTON*      CLEAR     69  64  83 CALM      29.98S
WAYNESBORO*    CLEAR     69  64  84 SW3       29.98R
HOT SPRINGS VA PTCLDY    68  55  62 CALM      30.10R
LYNCHBURG      CLEAR     69  63  81 CALM      29.95R
DANVILLE       CLEAR     69  67  93 SW3       29.94R
SOUTH BOSTON*  FAIR      71  66  84 CALM      29.94R
MARTINSVILLE   CLEAR     69  67  93 CALM      29.99R
ROANOKE        PTCLDY    76  65  68 CALM      29.98R
BLACKSBURG     CLEAR     69  63  79 CALM      30.04R
DUBLIN*        CLEAR     71  66  84 CALM      30.03R
MARION*        CLOUDY    71  62  73 CALM      30.07R
HILLSVILLE*    CLEAR     69  63  81 CALM      30.04R
RICHLANDS*     FAIR      73  58  59 W3        30.06S
WISE*          CLEAR     70  61  73 CALM      30.07R
ABINGDON*      CLEAR     72  64  75 N3        30.02S
$$

MDZ021>025-VAZ099-100-200100-
SOUTHERN MARYLAND AND THE DELMARVA PENINSULA

CITY           SKY/WX    TMP DP  RH WIND       PRES   REMARKS
PATUXENT RIVER CLOUDY    73  69  87 N14       29.87F
BAY BRIDGE APT CLOUDY    73  68  83 NE6       29.88S
LEONARDTOWN    CLOUDY    72  68  88 N5        29.91R
DOVER          RAIN      70  70 100 N15       29.85S
GEORGETOWN     LGT RAIN  70  67  90 N14G23    29.85R
EASTON         PTCLDY    73  68  83 N7        29.91S
CAMBRIDGE      CLOUDY    72  70  94 N5        29.87R
SALISBURY      CLOUDY    70  68  93 N15G23    29.84S
OCEAN CITY     LGT RAIN N/A N/A N/A N15G24    29.82R
WALLOPS ISLAND CLOUDY    69  69 100 NW12G21   29.83S
ACCOMACK*      CLOUDY    71  68  91 N7G18     29.85R
$$

NCZ012>017-030>032-200100-
NORTH CENTRAL AND EASTERN NORTH CAROLINA

CITY           SKY/WX    TMP DP  RH WIND       PRES   REMARKS
ROANOKE RAPIDS FAIR      70  68  94 MISG      29.90S
RALEIGH        PTCLDY    72  63  73 CALM      29.95R
ELIZABETH CITY MOCLDY    72  69  90 NW9       29.87R
AHOSKIE*         N/A     71  68  88 CALM      29.89S
EDENTON*       MOCLDY    74  70  86 CALM      29.88S
CURRITUCK*     CLOUDY    71  68  91 NW3       29.87R
KILL DEVIL HLS MOCLDY    71  65  83 NW9       29.84R
MANTEO         CLOUDY    72  67  86 N7G18     29.86R
CAPE HATTERAS  CLOUDY    74  70  87 NW8       29.87R
TARBORO*       NOT AVBL
GOLDSBORO      CLEAR     76  70  83 CALM      29.91R
WASHINGTON     CLEAR     75  66  74 CALM      29.90S
GREENVILLE     CLEAR     72  68  88 CALM      29.93S
NEW BERN       PTCLDY    72  69  90 CALM      29.92R
WILMINGTON     CLEAR     74  68  81 CALM      29.93R
$$

VAZ048-200100-
ELSEWHERE

CITY           SKY/WX    TMP DP  RH WIND       PRES   REMARKS
HARRISBURG PA  PTCLDY    72  67  84 NW7       29.92S
BALTIMORE      PTCLDY    75  68  78 NW6       29.89S
ANNAPOLIS      CLOUDY    79  71  76 NE3       29.88S
ANDREWS AFB    PTCLDY    76  65  67 NW10      29.89S
PHILADELPHIA   CLOUDY    74  66  76 N10       29.87S
HENDERSON NC   CLEAR     72  61  68 CALM      29.94R
GREENSBORO     PTCLDY    76  66  71 CALM      29.96R
ROCKY MOUNT    CLEAR     71  68  90 CALM      29.92R
$$

VAZ100-200100-
MARINE

STATION/POSITION TIME  TEMP    WIND        PRES    WAVE   SWELL
                       AIR SEA DIR/SP/G            HT/PER HT/PER
                 (UTC) (F)     (DEG/KT/KT) (MB)    (FT/S) (FT/S)
BRANDYWINE LGT   2342   69      10/ 27/ 36 1010.2F
CAPE MAY NJ      2342   70 74  360/ 10/ 20 1009.1S
LEWES DE         2342   71 72  360/ 25/ 29 1009.6F
15NM E FENWICK I 2250   70 71  340/ 29/ 33 1007.2   13/13  10/13
OCEAN-CITY-INLET 2342   69 73  360/ 17/ 23 1009.6R
WACHAPREAGUE VA  2342   70 74  330/  4/ 11 1010.5R
THOMAS POINT MD  0000   77 75   40/  9/ 10   N/A
GOOSES REEF MD   0000   77 74   40/ 14/ 16 1011.9
COVE POINT MD    2342   75      10/ 19/ 24 1011.9F
SOLOMONS ISLAND  2342   74 76  340/  7/  9 1011.3F
BISHOPS HEAD MD  2342   71 74  320/  6/  8 1011.4R
PINEY POINT MD   2342           60/  5/  8   N/A
POTOMAC MD       2350   72     330/ 10/ 12 1010.8F
CAMBRIDGE MD     2342   72 75              1012.0F
LEWISETTA VA     2342   72 76   50/  6/ 10 1011.7R
RAPPAHANNOCK LGT 2342          340/ 23/ 29 1011.5R
STINGRAY PT      2350   73      30/ 16/ 17 1011.6R
YORK RVR RNG VA  2342   74      10/ 17/ 20 1011.7R
YORKTOWN VA      2342   74 76   20/ 15/ 17 1011.2R
JAMESTOWN VA     2350          330/  8/ 10   N/A
DOMINION TERM VA 2342   74      50/  4/  6 1011.7R
KIPTOPEKE VA     2342      75   10/ 19/ 28   N/A
CHES BAY BRIDGE  2342   74 75  350/ 28/ 31 1010.9R
CAPE HENRY VA    2342   74     340/ 28/ 32   N/A
WILLOUBY STN VA  2342   74     360/ 15/ 18 1011.4R
S CRANEY ISL VA  2342   75      20/ 14/ 18 1011.2R
CAPE HENRY BUOY  2330      74                N/A     9/11   3/11
1ST LANDING BUOY 0000   74 75              1010.9    5/ 5
64NM E OF VA BCH 2350   71 71  320/ 27/ 31 1007.7R  16/10  13/10
DUCK PIER NC     2342   74 75  340/ 24/ 29 1009.7F
44100 DUCK FRF   2335      74                N/A    12/11   7/11
44056 DUCK FRF   2330      75                N/A    10/11   7/11
OREGON INLET NC  2342   73 74  320/ 14/ 19 1010.5R
HATTERAS NC      2342   73 76  340/ 15/ 17 1011.3R
DIAMOND SHLS NC  2350   74 74  340/ 19/ 25 1010.7R   8/10   5/10
CAPE LOOKOUT NC  0000   79     300/  6/  8 1012.2R
$$




USA.gov is the U.S. government's official web portal to all federal, state and local government web resources and services.